Regional Weather Roundup
Issued by NWS

Home | Current Version | Previous Version | Text Only | Print | Product List | Glossary Off
Versions: 1 2 3 4 5 6 7 8 9 10 11 12 13 14 15 16 17 18 19 20 21 22 23 24 25 26 27 28

000
ASUS45 KTFX 231110
RWRMT
MONTANA REGIONAL WEATHER ROUNDUP
NATIONAL WEATHER SERVICE GREAT FALLS MT
500 AM MDT THU MAR 23 2017

NOTE: "FAIR" INDICATES FEW OR NO CLOUDS BELOW 12000 FEET WITH NO
SIGNIFICANT WEATHER AND/OR OBSTRUCTIONS TO VISIBILITY.

MTZ001>007-043-231200-
WEST OF THE DIVIDE

CITY           SKY/WX    TMP DP  RH WIND       PRES   REMARKS
KALISPELL      CLOUDY    38  37  97 S6        29.89S
MISSOULA       MOCLDY    40  35  83 W5        29.94R
BUTTE          CLOUDY    33  28  81 NE3       29.87R
MULLAN PASS    CLOUDY    27  26  96 SW8       29.90S WCI  19
ANACONDA         N/A     34  28  80 SW3       29.89R
DEER LODGE       N/A     37  32  81 E5        29.91R
EUREKA           N/A     39  36  87 S8        29.88S
HAMILTON         N/A     41  30  65 CALM      29.93R
PLAINS           N/A     37  33  85 CALM      29.96
$$

MTZ008-052>055-231200-
SOUTHWEST MONTANA

CITY           SKY/WX    TMP DP  RH WIND       PRES   REMARKS
BOZEMAN        CLOUDY    38  32  79 CALM      29.82S
DILLON         CLOUDY    37  29  72 S3        29.81F
W YELLOWSTONE  CLOUDY    25  25 100 W3        29.81S
ENNIS          CLOUDY    28  25  86 SE5       29.86S
THREE FORKS      N/A     41 -12  10 CALM      29.84S
$$

MTZ009-010-012-014-046-048-049-054-231200-
EAST SLOPES AND CENTRAL MONTANA

CITY           SKY/WX    TMP DP  RH WIND       PRES   REMARKS
CUT BANK       MOCLDY    39  29  67 W23       29.77R WCI  28
GREAT FALLS    CLEAR     29  23  78 SW10      29.80R WCI  20
HELENA         CLOUDY    41  31  67 W8        29.86R
AUGUSTA          N/A     37  28  69 W5        29.80S
BOWMANS CRNR     N/A     33  28  82 SW7       29.80S WCI  27
CHOTEAU          N/A     37  28  70 SW6       29.82R
CONRAD           N/A     34  29  82 SW6       29.82S WCI  29
FAIRFIELD        N/A     35  26  71 S5        29.79S
POWER            N/A     29  25  84 W6        29.78S WCI  23
RAYNESFORD       N/A     29  23  76 CALM      29.80S
$$

MTZ011-013-016-021-045-047-050-051-231200-
NORTH CENTRAL MONTANA

CITY           SKY/WX    TMP DP  RH WIND       PRES   REMARKS
HAVRE          CLEAR     31  28  89 W7        29.77S WCI  24
LEWISTOWN      CLOUDY    35  26  69 S9        29.79S WCI  28
N BAR RANCH    CLOUDY    39  28  65 CALM      29.81S
CHINOOK          N/A     30  27  86 S3        29.77S
DENTON           N/A     35  26  70 SW7       29.76R WCI  29
FORT BENTON      N/A     30  25  80 N1        29.81R
GEYSER           N/A     36  25  64 SW13      29.79R WCI  27
GRASS RANGE    CLOUDY    40  30  68 W5        29.75R
STANFORD       MOCLDY    36  26  66 SW3       29.80S
WINIFRED         N/A     40  28  61 W9        29.78R
$$

MTZ017>020-022>027-061-062-231200-
NORTHEAST MONTANA

CITY           SKY/WX    TMP DP  RH WIND       PRES   REMARKS
GLASGOW        MOCLDY    37  33  85 N5        29.72F
JORDAN           N/A     41  38  89 CALM      29.73F
SIDNEY         CLOUDY    34  32  92 S5        29.75S
WOLF POINT     PTCLDY    34  31  88 CALM      29.74S
MALTA          CLEAR     30  28  93 CALM      29.75F
PLENTYWOOD       N/A     39  36  87 CALM      29.74R
POPLAR           N/A     37  34  87 N3        29.74S
SCOBEY           N/A     33  24  70 CALM      29.73
$$

MTZ028>42-056>058-231200-
SOUTHCENTRAL AND SOUTHEAST MONTANA

CITY           SKY/WX    TMP DP  RH WIND       PRES   REMARKS
BAKER          CLOUDY    48  34  58 N12       29.72F
BILLINGS       CLOUDY    45  41  86 NW7       29.76R
LIVINGSTON     CLOUDY    38  32  79 NW9       29.78F WCI  31
MILES CITY     CLOUDY    45  39  79 NW8       29.72F
BIG TIMBER     CLOUDY    43  34  70 W12       29.80F
EKALAKA          N/A     47  35  63 N8        29.72
FORSYTH          N/A     45  43  93 CALM      29.72F
HARLOWTON      CLOUDY    38  28  67 NW9       29.78F
LAUREL           N/A     45  35  67 W3        29.77S
$$

REGIONAL REPORTS...DAKOTAS

CITY           SKY/WX    TMP DP  RH WIND       PRES   REMARKS
WILLISTON      CLOUDY    30  28  92 CALM      29.74F
MINOT          CLOUDY    33  28  81 S3        29.74F
DICKINSON      CLOUDY    36  32  85 S5        29.75R
BEACH            N/A    N/A N/A N/A MISG        N/A
TIOGA            N/A     30  30 100 E3        29.75S
WATFORD CITY     N/A     32  32 100 CALM      29.77R
BISMARCK       CLOUDY    33  28  81 CALM      29.82R
GRAND FORKS    CLOUDY    33  21  61 S15       29.88F WCI  23
FARGO          CLOUDY    36  25  64 S24G31    29.91F WCI  24
BUFFALO SD       N/A     42  37  82 N13       29.63S
RAPID CITY     PTCLDY    46  39  76 NW10      29.66F
$$

REGIONAL REPORTS...WYOMING/IDAHO/WASHINGTON

CITY           SKY/WX    TMP DP  RH WIND       PRES   REMARKS
GILLETTE       CLOUDY    43  42  97 N7        29.70F
SHERIDAN       CLOUDY    46  41  82 W3        29.73F
BUFFALO WY     LGT RAIN  44  38  79 NW10      29.74F
CODY           CLOUDY    46  35  65 NW9       29.75S
YELLOWSTONE LA   N/A     27  27 100 CALM      29.81F
IDAHO FALLS    CLOUDY    37  35  92 W3        29.79S
SALMON         CLOUDY    39  27  60 CALM      29.88R
BOISE          CLEAR     39  34  82 NW13      29.94R WCI  31
SPOKANE        MOCLDY    35  32  88 S10       29.98R WCI  27
$$

REGIONAL REPORTS...ALBERTA

CITY           SKY/WX    TMP DP  RH WIND       PRES   REMARKS
EDMONTON       CLOUDY    27  23  86 E6        29.73R WCI  20
CALGARY        PTCLDY    36  19  51 SW6       29.68R WCI  31
LETHBRIDGE     CLEAR     37  28  70 SW13      29.75R WCI  29
MEDICINE HAT   CLEAR     32  28  86 SW8       29.72S WCI  25
WATERTON GATE    N/A     36  30  80 SW14G23     N/A  WCI  27
CARDSTON         N/A     37  25  60 SW6         N/A
MILK RIVER       N/A     36  30  80 NW12        N/A  WCI  27
$$

REGIONAL REPORTS...SASKATCHEWAN

CITY           SKY/WX    TMP DP  RH WIND       PRES   REMARKS
SWIFT CURRENT  CLEAR     28  28 100 W7        29.72R FOG     WCI  21
REGINA         FOG       30  30 100 NW10      29.75R VSB 3/4 WCI  21
SASKATOON      MOCLDY    27  23  86 NW10      29.75F WCI  17
VAL MARIE        N/A     27  23  86 SW2         N/A
ROCKGLEN         N/A     36  30  80 W10         N/A  WCI  28
ASSINIBOIA       N/A     16  14  93 S2          N/A
$$




USA.gov is the U.S. government's official web portal to all federal, state and local government web resources and services.